User: anonymous   Login
Location: Ceske Budejovice
(48.9830°N, 14.4670°E)
Time: 07:51:35
(UTC+02:00)
Language:

CAS-4B - Orbit

View from above orbital plane
View from above orbital plane
View from above satellite
View from above satellite

Ground track
Ground track

The orbit data is extracted from the following two-line orbital elements,

1 42759U 17034B   19286.59524231  .00000266  00000-0  29724-4 0  9991
2 42759  43.0200 308.6885 0012632 269.9590 237.0668 15.09652975128507
Epoch (UTC): 13 October 2019 14:17:08
Eccentricity: 0.0012632
inclination: 43.0200°
perigee height: 528 km
apogee height: 546 km
right ascension of ascending node: 308.6885°
argument of perigee: 269.9590°
revolutions per day: 15.09652975
mean anomaly at epoch: 237.0668°
orbit number at epoch: 12850

The dashed part of the orbit path shows where the satellite is in the earth's shadow,  

DLR